This is the latest recevied weather packets stored in our database for station/object KJ5IIV. If no packets are shown the sender has not sent any weather packets the latest 10 day(s).
| Time | Temp. | Humidity | Pressure | Rain* | Wind** | Luminosity | Snow |
|---|---|---|---|---|---|---|---|
| 1777742487 | 22.22° C | 44% | 1021.4 hPa | 0 mm | - | 751 W/m² | - |
| 1777742183 | 21.67° C | 43% | 1021.5 hPa | 0 mm | - | 750 W/m² | - |
| 1777741880 | 21.67° C | 43% | 1021.3 hPa | 0 mm | - | 747 W/m² | - |
| 1777741577 | 22.22° C | 44% | 1021.4 hPa | 0 mm | - | 750 W/m² | - |
| 1777741274 | 22.22° C | 46% | 1021.4 hPa | 0 mm | - | 743 W/m² | - |
| 1777740970 | 22.22° C | 45% | 1021.5 hPa | 0 mm | - | 737 W/m² | - |
| 1777740668 | 21.67° C | 48% | 1021.3 hPa | 0 mm | - | 728 W/m² | - |
| 1777740363 | 22.22° C | 48% | 1021.3 hPa | 0 mm | - | 731 W/m² | - |
| 1777740061 | 21.67° C | 47% | 1021.4 hPa | 0 mm | - | 731 W/m² | - |
| 1777739756 | 21.67° C | 47% | 1021.3 hPa | 0 mm | - | 726 W/m² | - |
| 1777739453 | 21.11° C | 51% | 1021.2 hPa | 0 mm | - | 724 W/m² | - |
| 1777739150 | 21.67° C | 50% | 1021.2 hPa | 0 mm | - | 725 W/m² | - |
| 1777738847 | 21.67° C | 55% | 1021.6 hPa | 0 mm | - | 725 W/m² | - |
| 1777738544 | 21.67° C | 52% | 1021.6 hPa | 0 mm | - | 721 W/m² | - |
| 1777738242 | 21.67° C | 55% | 1021.6 hPa | 0 mm | - | 724 W/m² | - |
| 1777737940 | 21.11° C | 56% | 1021.6 hPa | 0 mm | - | 723 W/m² | - |
| 1777737638 | 21.11° C | 53% | 1021.6 hPa | 0 mm | - | 714 W/m² | - |
| 1777737336 | 21.11° C | 54% | 1021.3 hPa | 0 mm | - | 728 W/m² | - |
| 1777737033 | 20.56° C | 54% | 1021.3 hPa | 0 mm | - | 727 W/m² | - |
| 1777736729 | 20.56° C | 53% | 1021.6 hPa | 0 mm | - | 739 W/m² | - |
| 1777736100 | 20.56° C | 63% | 1021.5 hPa | 0 mm | - | 744 W/m² | - |
| 1777735797 | 20.56° C | 59% | 1021.3 hPa | 0 mm | - | 734 W/m² | - |
| 1777735495 | 20° C | 62% | 1021.1 hPa | 0 mm | - | 743 W/m² | - |
| 1777735193 | 20° C | 61% | 1021.2 hPa | 0 mm | - | 691 W/m² | - |
| 1777734889 | 20° C | 58% | 1021.2 hPa | 0 mm | - | 679 W/m² | - |
* Rain latest hour (hover to see other rain measurements)
** Current wind speed in m/s (hover to see current wind gust speed)